GFSSW_sfc_dewp_132.txt.gz
Dewpoint
50 50 50 50 50 50 50 50 51 51 51 51 51 51 51 52 52 38 29 39 44 53 54 37 39 28 25 34 32 27 20 16 12 6 1 -2 -6 -9 -5 0 5 9 18 21 42
50 50 50 50 50 50 50 50 50 50 50 50 50 51 51 52 43 35 41 56 60 59 41 35 31 31 23 25 29 27 23 19 15 13 10 7 6 0 -4 -1 1 3 8 21 47
49 49 49 49 49 49 50 50 50 50 50 50 50 50 51 49 37 29 56 54 60 55 33 35 29 19 27 21 19 24 24 21 17 15 13 9 8 6 1 3 4 3 5 10 27
49 49 49 49 49 49 49 49 49 50 50 50 49 50 51 44 17 46 55 57 57 42 34 30 31 20 20 24 21 17 20 22 20 17 15 13 12 10 6 5 3 5 5 7 14
48 49 48 48 48 49 49 49 50 50 50 50 49 50 46 37 36 34 57 53 47 40 35 30 28 26 20 22 24 22 20 22 22 21 18 16 15 12 10 8 8 8 7 9 42
49 48 47 49 50 50 51 51 51 51 50 50 49 49 42 34 29 25 24 41 45 44 38 36 32 30 27 24 20 23 22 19 20 21 20 16 14 15 15 13 12 12 10 21 36
50 49 47 47 48 49 50 50 50 51 51 51 51 46 39 33 28 31 28 33 37 33 39 41 37 36 28 25 20 19 20 19 18 19 20 20 15 15 16 15 16 14 16 17 22
49 49 48 48 48 49 50 51 51 51 51 52 50 44 36 30 29 27 27 28 27 28 26 29 39 38 34 27 21 19 21 20 20 18 19 19 17 18 18 16 15 17 17 18 19
49 49 50 50 50 51 51 51 51 51 52 51 47 43 31 42 34 33 28 24 22 25 25 26 31 33 31 27 22 20 17 17 17 18 17 18 19 19 19 19 21 23 22 20 20
49 49 50 50 50 51 50 51 50 50 47 46 44 39 38 28 23 20 23 29 26 24 25 22 22 25 30 27 22 19 16 16 16 16 17 17 19 20 20 18 21 22 23 24 24
49 49 49 50 50 50 48 41 30 34 30 26 27 32 25 21 19 17 17 19 23 28 24 24 20 19 24 30 27 20 16 14 16 16 17 20 20 21 22 22 20 22 23 26 27
49 49 49 50 50 49 46 30 27 27 26 26 24 22 21 21 17 17 20 17 15 15 24 22 19 20 24 24 24 23 19 17 17 14 19 20 21 22 22 23 24 25 26 26 29
49 49 49 50 49 42 27 22 24 32 28 28 19 25 23 30 26 22 24 15 14 12 21 26 20 19 17 22 20 20 20 22 18 16 16 19 20 23 21 22 24 24 26 29 30
49 49 49 50 39 31 23 29 25 37 28 19 25 32 23 24 28 34 29 26 18 12 30 26 27 27 21 19 20 19 17 20 19 19 15 20 16 24 24 24 26 25 26 26 30
49 49 49 49 41 23 24 30 29 38 20 20 20 22 25 24 25 28 31 31 28 19 22 22 28 27 27 24 21 20 18 15 16 18 20 17 17 18 24 23 26 27 26 27 29
49 49 49 39 31 23 31 33 33 31 20 18 23 24 31 31 32 34 33 32 39 36 37 35 28 28 25 25 23 24 26 17 17 16 17 20 19 17 17 24 26 28 26 26 27
49 48 47 39 27 29 35 34 28 22 22 23 24 25 29 31 28 37 33 33 33 32 31 28 27 29 30 28 27 24 25 23 18 17 17 20 20 22 23 22 25 28 26 27 29
48 47 44 25 31 33 34 26 21 22 23 26 26 24 28 24 25 27 35 34 39 38 36 34 28 30 28 27 25 23 28 29 18 19 19 21 19 21 26 23 23 27 28 28 32
47 39 28 32 33 34 29 27 22 24 23 24 26 22 23 25 27 27 34 35 38 38 34 33 27 36 34 26 24 22 20 26 27 23 19 22 22 25 24 22 24 25 28 29 32
43 40 27 33 36 34 33 29 25 23 24 25 27 27 27 28 28 28 29 31 32 28 31 31 29 31 36 39 35 24 20 20 32 31 24 29 23 20 23 24 24 26 29 29 32
42 28 28 31 33 31 37 28 26 24 25 27 26 29 31 31 29 28 28 27 34 32 31 33 34 29 31 32 32 25 22 22 28 31 29 27 26 26 27 25 27 26 29 32 31
40 25 28 31 26 26 27 27 29 24 26 26 28 29 33 32 28 30 28 29 29 32 30 37 36 31 31 35 40 39 34 25 27 29 33 34 30 31 27 29 31 36 48 52 54
37 26 28 32 25 26 29 25 24 25 28 28 29 29 30 30 32 33 29 29 29 34 31 34 33 29 33 37 38 39 35 35 35 35 30 31 32 37 38 28 48 54 55 55 56
35 25 26 29 29 30 30 30 24 26 28 28 30 33 35 36 33 30 29 30 34 33 38 37 35 32 30 34 37 33 33 33 32 34 32 31 34 35 41 51 53 54 55 56 57
30 29 31 27 28 31 32 29 26 29 31 33 36 33 35 32 33 29 30 34 35 35 38 38 34 33 34 31 36 35 30 28 31 28 30 30 30 36 47 51 52 53 55 56 55
33 36 33 33 31 30 28 28 27 29 33 34 36 37 37 33 35 32 36 35 35 34 34 36 32 33 32 32 32 34 34 33 28 28 29 37 37 48 52 52 52 54 54 55 55
43 40 39 33 29 25 26 29 29 32 34 35 37 36 36 37 38 39 38 38 38 35 34 35 34 34 29 30 33 32 32 33 29 29 38 38 40 45 48 51 52 53 52 51 50

GFSSW_sfc_dewp_138.txt.gz
Dewpoint
50 50 50 50 50 50 50 50 50 50 51 51 51 51 51 50 52 46 41 40 47 50 55 41 39 37 32 29 33 34 29 25 24 21 13 8 7 9 7 4 3 18 36 60 65
50 50 50 50 50 50 50 50 50 51 50 50 50 50 50 50 46 43 47 48 50 53 45 41 39 37 26 25 27 33 30 28 25 22 19 18 16 16 14 13 7 6 44 58 65
50 50 50 50 50 50 50 50 50 50 50 50 50 49 50 48 40 30 56 57 54 53 45 44 41 35 29 22 23 28 29 28 29 26 25 23 22 21 16 12 7 4 48 58 62
50 50 50 50 51 51 51 51 51 51 51 50 50 49 51 46 -5 49 57 59 59 57 48 39 37 32 26 23 21 22 25 30 30 29 27 25 23 22 20 19 18 15 28 57 61
49 49 49 50 51 51 52 53 52 52 52 50 50 49 45 40 39 40 47 42 32 50 45 37 30 32 28 25 23 21 20 19 23 26 27 26 24 23 22 23 21 16 11 19 49
50 49 49 50 50 50 51 52 53 53 53 52 50 51 44 35 34 34 33 33 30 42 41 34 31 30 29 28 23 20 22 23 22 19 19 21 20 22 22 23 19 17 11 11 12
50 50 50 50 50 50 52 52 52 53 52 52 51 48 41 37 37 34 38 36 31 38 38 36 34 31 30 27 28 27 24 23 24 23 21 19 19 20 22 22 19 18 15 15 30
51 51 51 50 51 51 52 52 52 53 53 52 50 44 38 41 40 39 37 33 32 27 41 42 36 33 32 33 33 34 31 25 24 24 22 24 21 23 23 21 21 20 16 17 23
51 51 51 52 52 52 52 52 53 54 53 51 46 43 37 44 39 37 38 29 27 23 26 25 26 31 27 26 28 34 31 29 25 21 19 20 19 22 23 23 22 21 19 18 18
51 51 51 52 52 52 51 51 51 50 49 48 45 37 35 26 28 28 27 28 26 21 25 23 22 20 23 26 24 30 30 28 25 21 19 18 17 19 22 20 21 21 20 20 19
51 50 51 51 52 51 49 40 26 25 31 26 27 33 29 28 27 26 31 30 22 23 21 24 19 18 19 21 26 29 30 28 26 24 21 19 19 21 21 22 19 20 20 20 22
50 50 51 51 52 51 43 27 29 29 27 29 30 28 28 26 26 31 31 30 29 19 17 22 20 21 22 21 20 19 20 22 26 29 25 20 19 19 19 20 21 21 21 20 22
50 50 50 51 51 41 37 30 33 34 30 30 30 26 25 26 31 35 32 29 29 28 27 14 15 19 18 21 19 19 17 17 18 23 26 25 23 23 21 20 21 22 22 22 22
49 50 50 50 38 40 37 29 35 36 29 25 24 25 25 26 31 37 37 32 31 29 26 19 15 13 12 12 25 24 22 18 17 21 22 23 17 19 22 20 21 20 21 22 21
49 50 50 50 43 39 35 31 34 35 17 22 22 25 26 26 27 30 40 38 32 32 32 26 30 26 20 14 20 23 28 25 26 23 17 19 18 19 21 21 20 22 20 21 22
49 49 50 44 42 38 36 32 35 25 18 21 22 24 25 26 26 28 32 39 39 36 35 32 32 34 30 27 26 26 30 30 28 25 19 17 18 17 18 19 20 21 22 21 23
48 49 48 45 34 36 35 33 23 19 23 20 21 25 25 26 26 27 28 35 35 32 32 34 33 33 31 28 28 31 31 23 23 21 20 21 21 20 21 21 20 21 22 23 25
48 48 46 44 42 37 34 26 20 22 23 24 23 25 26 26 26 27 29 30 37 37 35 30 25 34 38 33 27 27 31 27 21 17 16 20 20 18 19 19 22 23 23 24 27
47 43 42 41 35 34 32 23 22 25 25 24 26 25 24 26 29 30 29 32 37 38 32 31 29 31 31 32 33 30 29 30 27 26 27 26 21 21 21 19 21 20 20 25 27
43 41 41 40 33 35 33 28 27 27 32 30 28 27 26 27 29 29 30 33 30 33 35 33 28 29 35 36 36 34 33 27 30 23 20 27 24 21 18 18 25 20 20 25 30
40 38 36 33 35 33 28 27 28 30 34 31 29 30 31 31 32 31 30 30 32 32 35 34 32 28 31 30 31 34 32 34 31 30 21 21 23 23 24 32 36 35 32 25 32
39 34 37 34 28 28 27 30 33 31 31 30 34 32 34 35 34 28 30 32 34 37 34 36 32 27 28 30 33 35 35 34 28 26 28 25 23 28 32 36 36 35 40 39 51
38 37 37 33 26 27 30 29 30 30 29 31 31 33 37 35 32 34 31 31 35 35 36 37 30 22 22 34 39 37 36 37 35 34 32 25 25 35 37 37 38 37 46 57 60
39 29 32 32 32 28 29 29 28 29 30 32 35 37 37 35 34 35 34 35 36 37 41 38 35 31 25 22 30 28 30 35 37 32 29 30 28 33 36 38 40 41 55 57 58
35 30 32 26 29 31 31 29 29 29 31 34 35 36 34 31 32 32 33 36 37 38 36 36 33 32 32 32 32 31 31 30 31 36 28 28 31 36 37 40 42 46 56 56 57
34 34 36 34 28 28 29 28 31 31 31 32 33 33 33 34 35 33 36 35 34 35 32 34 30 29 27 28 28 29 30 32 33 35 31 34 34 45 46 48 45 49 55 56 57
38 39 39 33 28 26 27 30 32 32 33 33 33 34 35 36 38 38 38 38 37 36 34 34 32 30 25 31 31 30 37 36 32 37 34 32 38 45 43 43 44 43 47 56 56

GFSSW_sfc_dewp_141.txt.gz
Dewpoint
51 51 50 50 50 50 51 51 51 50 50 50 50 50 50 50 50 46 42 41 47 52 50 43 40 45 32 30 32 33 29 25 22 16 10 11 4 8 9 4 17 12 39 58 68
50 50 50 50 50 51 51 51 51 51 51 50 50 49 49 50 46 43 46 49 50 52 45 40 35 35 31 26 29 32 29 25 24 20 18 16 18 19 18 19 18 16 21 64 68
50 50 50 50 50 50 51 51 51 52 51 50 50 50 49 49 36 22 50 54 56 54 47 41 39 36 32 24 25 30 28 26 28 27 26 23 24 23 20 19 17 12 18 65 67
50 50 50 51 51 52 52 52 52 52 52 51 50 49 49 46 -13 48 51 49 49 42 46 43 40 36 30 29 23 20 26 27 28 28 29 28 26 24 22 22 22 23 25 45 66
50 50 50 50 50 51 52 52 52 53 53 52 51 50 43 38 36 38 47 41 34 43 48 43 35 36 27 26 29 22 20 21 25 29 30 29 28 27 26 26 26 25 23 29 65
50 50 50 50 51 52 52 53 53 53 53 52 51 50 43 33 35 36 34 35 34 35 47 43 33 32 31 29 26 26 23 21 21 22 23 26 25 25 23 24 23 24 22 17 63
51 50 50 51 51 52 53 53 53 53 53 53 50 49 42 34 37 38 38 38 35 32 33 42 38 31 29 28 28 27 25 25 24 23 23 22 20 20 20 20 21 23 22 16 33
50 51 50 51 51 52 53 53 53 53 54 52 51 44 37 41 41 41 39 36 36 36 31 30 38 33 32 32 32 33 32 29 25 23 24 22 21 23 24 23 24 24 22 18 30
51 51 51 51 51 52 53 52 52 54 52 52 45 41 36 42 39 38 39 32 28 27 26 28 37 35 34 31 28 30 29 31 29 28 22 22 21 23 25 23 23 24 24 20 18
50 50 51 51 52 52 52 51 51 52 50 49 46 35 31 26 27 29 29 32 28 26 22 23 22 22 24 27 27 26 31 31 29 26 23 21 21 22 22 22 23 23 24 23 19
49 50 50 51 52 52 50 31 29 27 31 26 26 31 29 30 29 27 32 31 24 24 20 21 19 18 19 21 22 23 23 25 29 28 27 24 22 20 22 21 20 22 23 22 20
49 49 50 51 51 51 42 29 29 30 28 30 29 28 29 28 26 35 37 29 30 24 19 18 18 17 20 20 20 20 19 19 22 25 25 28 26 26 23 22 22 22 23 22 22
49 50 50 51 51 41 38 33 31 33 30 30 30 29 24 26 26 31 37 36 33 30 25 22 20 19 22 22 21 20 19 19 18 19 18 21 23 24 27 23 22 22 23 23 23
49 49 50 49 38 39 33 33 34 35 28 28 24 23 27 27 28 31 39 36 34 30 28 26 26 22 17 14 15 21 24 24 24 19 15 23 20 21 23 22 22 22 21 23 23
49 49 50 49 42 38 30 36 34 33 14 23 23 25 27 26 27 26 36 37 34 34 33 30 29 25 17 14 14 13 22 26 28 25 25 24 18 19 21 20 21 22 23 22 23
49 49 49 44 43 42 39 36 33 23 15 23 23 23 23 26 27 27 27 39 39 37 36 33 32 32 29 28 26 21 29 29 29 27 23 22 18 16 18 20 21 22 23 24 23
48 48 48 46 33 38 36 31 22 17 23 21 22 24 26 26 25 28 29 32 35 32 29 32 33 33 33 30 29 32 29 23 20 22 20 22 20 18 21 21 20 21 22 25 25
47 47 45 45 44 40 32 24 18 22 23 28 29 29 28 25 28 29 29 29 38 37 32 29 26 34 36 31 29 28 29 24 14 15 13 20 20 21 22 22 23 23 23 24 25
46 42 42 41 38 35 30 22 20 25 27 31 30 26 25 27 30 30 30 31 36 37 30 29 28 29 30 32 32 33 28 28 25 28 26 25 24 20 20 21 23 22 21 22 25
42 39 40 38 35 35 31 27 26 29 31 32 27 28 27 28 30 32 30 32 32 33 34 32 27 29 32 34 34 32 33 29 31 17 21 24 24 19 20 20 20 23 32 33 26
38 37 37 35 34 31 24 25 28 30 32 29 27 30 32 32 34 31 30 31 35 34 36 34 31 27 30 28 30 34 33 35 30 26 18 19 23 25 23 25 22 24 35 38 34
40 28 37 33 27 29 26 29 33 31 30 29 32 32 35 36 34 31 28 32 34 37 34 36 34 28 28 30 33 34 33 36 31 24 27 24 20 27 31 35 36 35 36 43 42
37 37 40 33 26 27 29 29 30 30 29 31 30 35 37 36 31 34 33 32 34 36 36 35 30 25 21 32 37 33 34 36 35 35 29 23 23 29 31 35 34 37 40 49 47
38 29 32 32 32 28 29 27 29 31 30 31 31 36 36 34 34 34 35 35 36 38 42 40 34 29 20 20 29 27 29 32 34 30 29 29 28 31 34 36 37 41 44 53 56
34 29 31 25 28 29 28 29 29 29 32 31 35 32 33 30 32 33 34 36 37 38 37 36 32 31 32 32 30 30 30 30 31 34 33 31 30 32 34 41 44 45 47 55 58
31 32 33 31 31 27 27 27 29 29 30 29 33 33 33 32 33 32 35 35 35 35 34 35 29 31 29 29 28 27 29 29 29 30 33 37 35 35 43 45 43 44 48 56 58
35 35 36 30 30 27 25 25 28 32 31 32 33 33 33 34 36 37 37 37 37 37 36 35 33 30 25 31 32 29 32 35 35 32 33 35 35 43 41 41 41 43 47 54 57

GFSSW_sfc_dewp_144.txt.gz
Dewpoint
51 51 51 51 51 50 50 51 51 51 52 51 51 51 50 50 50 45 41 40 47 52 53 46 47 46 35 31 33 33 27 24 19 15 8 12 7 11 11 6 17 16 22 33 68
51 51 51 51 51 51 51 52 51 51 52 52 51 51 51 50 46 43 46 50 52 52 46 42 36 39 31 28 29 31 29 26 22 19 13 12 17 18 19 20 20 19 20 64 67
50 50 50 51 51 52 52 52 53 52 51 51 51 50 51 48 33 23 51 51 50 47 48 44 38 36 31 26 26 30 28 28 27 25 24 23 24 21 20 19 19 18 21 66 67
50 50 50 50 51 52 53 53 53 53 52 52 52 50 49 44 3 35 53 48 47 39 47 44 41 37 32 26 23 22 28 28 28 27 27 28 28 26 24 24 22 21 23 41 66
50 50 50 50 51 52 53 53 53 53 53 52 52 51 43 37 32 32 47 41 35 39 46 44 37 37 31 29 30 22 21 20 26 27 27 30 29 28 28 28 28 28 27 26 38
50 50 49 50 51 52 53 54 54 53 53 52 50 49 43 28 33 36 35 36 36 32 48 43 39 35 33 31 29 29 26 24 21 20 23 23 23 25 25 25 28 28 25 25 23
50 50 50 51 51 52 53 53 53 54 53 53 51 49 41 31 36 39 40 38 37 33 30 46 44 36 30 29 30 28 27 26 26 24 22 23 21 21 22 22 21 20 23 24 22
50 50 50 51 51 52 53 53 53 54 54 53 51 43 38 38 41 43 40 37 38 38 34 31 44 41 34 32 31 30 31 29 27 25 24 23 17 20 22 23 22 22 23 25 24
50 51 50 50 51 52 53 53 52 53 53 52 44 40 33 40 32 30 39 32 29 30 31 28 37 35 34 31 30 30 28 29 29 28 22 22 20 23 24 24 24 24 25 24 22
50 50 50 51 51 52 52 51 52 51 50 48 46 34 31 27 28 30 31 36 29 28 23 23 28 30 31 32 29 28 28 27 30 28 26 23 21 22 24 25 24 25 25 26 22
48 49 50 51 51 51 50 31 31 30 30 28 27 27 27 30 30 29 37 33 27 24 19 19 18 18 19 23 25 27 27 24 24 25 25 27 27 27 26 23 21 22 24 25 25
48 48 49 50 51 51 40 29 30 31 28 30 29 29 29 29 26 28 37 33 33 29 28 17 18 17 19 21 21 21 20 19 20 22 23 21 19 21 25 26 24 24 24 24 26
49 49 50 49 50 40 37 32 31 34 30 30 30 29 26 27 26 27 35 33 33 32 30 25 24 20 18 20 19 20 19 19 19 20 21 19 20 23 25 28 29 25 25 25 25
49 49 49 48 39 39 33 33 34 34 26 27 25 23 26 27 28 28 33 34 34 32 31 28 28 26 25 21 21 19 21 21 23 23 18 24 19 21 25 25 25 25 23 24 25
49 49 49 48 41 35 32 37 35 32 14 21 23 25 27 25 27 28 31 35 30 33 34 31 31 30 17 18 17 16 26 24 23 26 25 25 21 19 22 22 23 24 24 24 26
48 49 48 44 43 42 41 37 31 22 13 22 24 28 28 29 27 27 28 36 39 37 36 35 35 32 29 25 17 17 20 28 27 27 21 23 22 18 18 21 24 23 27 26 24
48 48 47 45 31 41 38 29 23 16 22 24 27 30 29 28 26 30 30 32 34 30 27 31 32 33 32 29 30 30 26 17 22 22 19 23 22 21 21 22 23 24 27 25 26
47 47 44 45 44 44 30 23 16 21 23 28 30 30 28 27 30 30 30 28 37 34 31 26 21 33 34 31 28 29 26 19 13 18 17 22 21 21 24 24 23 23 25 25 26
46 41 40 37 37 35 29 21 17 25 27 30 31 26 26 28 30 31 30 30 33 36 28 28 26 28 26 27 30 31 27 27 23 26 21 23 24 23 20 20 22 25 25 24 27
41 38 39 36 35 35 29 26 26 28 31 31 26 27 27 27 30 33 30 32 33 36 36 34 27 27 31 32 34 31 36 29 31 19 17 22 24 18 20 20 20 20 25 33 36
37 33 35 36 33 30 22 24 28 30 32 31 26 28 30 32 33 32 29 31 36 35 36 35 32 26 30 27 29 33 33 35 32 25 15 19 23 26 23 23 22 22 23 32 35
37 18 34 32 25 27 25 29 32 30 30 29 30 31 33 36 34 30 29 33 37 35 34 34 34 26 26 28 31 32 33 34 30 26 26 23 20 26 30 30 27 31 35 36 38
35 35 39 32 23 25 27 27 30 30 30 30 30 31 36 35 30 31 31 34 35 35 36 36 30 23 20 27 35 29 32 32 35 34 30 26 23 28 30 28 34 35 36 41 48
33 27 31 31 30 27 26 25 26 31 31 30 29 32 35 32 31 33 33 35 37 37 42 41 34 29 24 20 28 26 27 31 35 30 26 27 27 30 31 34 35 37 40 43 48
32 27 34 24 25 28 27 27 25 24 30 30 31 34 34 29 30 31 35 37 38 39 39 37 31 31 32 31 31 29 27 28 29 31 28 26 26 31 34 35 37 40 44 46 51
28 30 30 28 30 29 26 25 23 27 30 28 29 32 32 30 31 30 34 33 35 38 37 37 30 31 28 30 32 31 30 28 28 28 29 30 30 34 37 39 40 44 45 46 53
33 32 35 29 28 26 25 27 27 31 29 31 32 33 31 32 35 35 36 37 37 36 35 34 33 30 25 31 32 27 32 33 32 31 30 28 30 37 39 39 39 43 44 48 54